| time (UTC) | temp C | wind direction | speed KPH | gust KPH | rain 1hr cm | rain 24hr cm | rain mn cm | humidity % | barometer mb |
| 20260503230814 | 16 | 242 | 1.6 | 3.2 | 0.00 | 0.00 | 0.00 | 47 | 1017.0 |
| 20260503230314 | 16 | 223 | 1.6 | 3.2 | 0.00 | 0.00 | 0.00 | 46 | 1017.0 |
| 20260503225828 | 16 | 220 | 1.6 | 3.2 | 0.00 | 0.00 | 0.00 | 44 | 1017.1 |
| 20260503225330 | 16 | 78 | 1.6 | 4.8 | 0.00 | 0.00 | 0.00 | 44 | 1017.2 |
| 20260503224824 | 17 | 186 | 3.2 | 9.7 | 0.00 | 0.00 | 0.00 | 41 | 1017.2 |
| 20260503224325 | 17 | 199 | 1.6 | 9.7 | 0.00 | 0.00 | 0.00 | 41 | 1017.3 |
| 20260503223841 | 17 | 207 | 1.6 | 6.4 | 0.00 | 0.00 | 0.00 | 42 | 1017.2 |
| 20260503223315 | 17 | 201 | 3.2 | 4.8 | 0.00 | 0.00 | 0.00 | 43 | 1017.3 |
| 20260503222824 | 17 | 193 | 1.6 | 6.4 | 0.00 | 0.00 | 0.00 | 42 | 1017.4 |
| 20260503222320 | 17 | 284 | 3.2 | 6.4 | 0.00 | 0.00 | 0.00 | 42 | 1017.4 |
| 20260503221813 | 17 | 230 | 1.6 | 11.3 | 0.00 | 0.00 | 0.00 | 41 | 1017.4 |
| 20260503221348 | 17 | 247 | 4.8 | 11.3 | 0.00 | 0.00 | 0.00 | 41 | 1017.4 |
| 20260503220823 | 17 | 269 | 1.6 | 8.0 | 0.00 | 0.00 | 0.00 | 42 | 1017.3 |
| 20260503220317 | 17 | 215 | 3.2 | 11.3 | 0.00 | 0.00 | 0.00 | 42 | 1017.4 |
| 20260503215846 | 17 | 288 | 3.2 | 11.3 | 0.00 | 0.00 | 0.00 | 43 | 1017.5 |
| 20260503215321 | 17 | 138 | 1.6 | 11.3 | 0.00 | 0.00 | 0.00 | 43 | 1017.4 |
| 20260503214816 | 17 | 306 | 1.6 | 11.3 | 0.00 | 0.00 | 0.00 | 44 | 1017.4 |
| 20260503214327 | 17 | 225 | 3.2 | 6.4 | 0.00 | 0.00 | 0.00 | 43 | 1017.5 |
| 20260503213822 | 17 | 271 | 1.6 | 11.3 | 0.00 | 0.00 | 0.00 | 44 | 1017.6 |
| 20260503213318 | 18 | 269 | 1.6 | 6.4 | 0.00 | 0.00 | 0.00 | 39 | 1017.5 |
| 20260503212813 | 17 | 219 | 3.2 | 6.4 | 0.00 | 0.00 | 0.00 | 38 | 1017.6 |
| 20260503212349 | 17 | 277 | 1.6 | 8.0 | 0.00 | 0.00 | 0.00 | 37 | 1017.6 |
| 20260503211819 | 18 | 232 | 3.2 | 8.0 | 0.00 | 0.00 | 0.00 | 37 | 1017.7 |
| 20260503211314 | 18 | 258 | 1.6 | 12.9 | 0.00 | 0.00 | 0.00 | 39 | 1017.8 |
| 20260503210830 | 18 | 263 | 4.8 | 14.5 | 0.00 | 0.00 | 0.00 | 37 | 1017.6 |
| 20260503210313 | 18 | 274 | 1.6 | 14.5 | 0.00 | 0.00 | 0.00 | 38 | 1017.7 |
| 20260503205828 | 18 | 277 | 3.2 | 8.0 | 0.00 | 0.00 | 0.00 | 40 | 1017.7 |
| 20260503205323 | 18 | 230 | 3.2 | 14.5 | 0.00 | 0.00 | 0.00 | 40 | 1017.6 |
| 20260503204820 | 18 | 186 | 4.8 | 14.5 | 0.00 | 0.00 | 0.00 | 43 | 1017.7 |
| 20260503204316 | 18 | 197 | 3.2 | 11.3 | 0.00 | 0.00 | 0.00 | 41 | 1017.8 |
| 20260503203831 | 18 | 269 | 3.2 | 11.3 | 0.00 | 0.00 | 0.00 | 40 | 1017.8 |
| 20260503203343 | 18 | 278 | 3.2 | 11.3 | 0.00 | 0.00 | 0.00 | 38 | 1017.9 |
| 20260503202837 | 19 | 206 | 3.2 | 11.3 | 0.00 | 0.00 | 0.00 | 39 | 1018.0 |
| 20260503202321 | 18 | 250 | 4.8 | 8.0 | 0.00 | 0.00 | 0.00 | 39 | 1018.1 |
| 20260503201813 | 19 | 81 | 3.2 | 8.0 | 0.00 | 0.00 | 0.00 | 43 | 1018.1 |
| 20260503201329 | 18 | 234 | 1.6 | 9.7 | 0.00 | 0.00 | 0.00 | 40 | 1018.2 |
| 20260503200818 | 18 | 327 | 3.2 | 12.9 | 0.00 | 0.00 | 0.00 | 41 | 1018.4 |
| 20260503200351 | 18 | 221 | 3.2 | 12.9 | 0.00 | 0.00 | 0.00 | 41 | 1018.4 |
| 20260503195823 | 18 | 144 | 3.2 | 12.9 | 0.00 | 0.00 | 0.00 | 41 | 1018.6 |
| 20260503195319 | 18 | 170 | 4.8 | 12.9 | 0.00 | 0.00 | 0.00 | 41 | 1018.7 |
| 20260503194814 | 18 | 273 | 4.8 | 12.9 | 0.00 | 0.00 | 0.00 | 42 | 1018.8 |
| 20260503194329 | 18 | 185 | 4.8 | 9.7 | 0.00 | 0.00 | 0.00 | 42 | 1018.9 |
| 20260503193822 | 18 | 231 | 3.2 | 9.7 | 0.00 | 0.00 | 0.00 | 44 | 1018.9 |
| 20260503193317 | 18 | 306 | 4.8 | 9.7 | 0.00 | 0.00 | 0.00 | 44 | 1019.0 |
| 20260503192825 | 18 | 309 | 3.2 | 8.0 | 0.00 | 0.00 | 0.00 | 42 | 1019.3 |
| 20260503192320 | 17 | 229 | 3.2 | 8.0 | 0.00 | 0.00 | 0.00 | 43 | 1019.4 |
| 20260503191818 | 17 | 242 | 3.2 | 8.0 | 0.00 | 0.00 | 0.00 | 43 | 1019.3 |
| 20260503191314 | 17 | 255 | 3.2 | 8.0 | 0.00 | 0.00 | 0.00 | 43 | 1019.5 |
| 20260503190829 | 18 | 209 | 3.2 | 12.9 | 0.00 | 0.00 | 0.00 | 45 | 1019.4 |
| 20260503190345 | 17 | 183 | 1.6 | 12.9 | 0.00 | 0.00 | 0.00 | 47 | 1019.4 |
| 20260503185819 | 17 | 256 | 3.2 | 12.9 | 0.00 | 0.00 | 0.00 | 44 | 1019.5 |
| 20260503185314 | 17 | 225 | 4.8 | 12.9 | 0.00 | 0.00 | 0.00 | 43 | 1019.6 |
| 20260503184829 | 18 | 186 | 3.2 | 11.3 | 0.00 | 0.00 | 0.00 | 43 | 1019.6 |
| 20260503183818 | 18 | 234 | 3.2 | 12.9 | 0.00 | 0.00 | 0.00 | 44 | 1019.8 |
| 20260503183312 | 17 | 115 | 6.4 | 12.9 | 0.00 | 0.00 | 0.00 | 43 | 1019.7 |
| 20260503182828 | 17 | 85 | 3.2 | 14.5 | 0.00 | 0.00 | 0.00 | 44 | 1019.9 |
| 20260503182342 | 17 | 172 | 3.2 | 14.5 | 0.00 | 0.00 | 0.00 | 47 | 1019.9 |
| 20260503181816 | 17 | 288 | 1.6 | 11.3 | 0.00 | 0.00 | 0.00 | 48 | 1019.9 |
| 20260503181331 | 17 | 194 | 3.2 | 11.3 | 0.00 | 0.00 | 0.00 | 46 | 1020.0 |
| 20260503180827 | 17 | 190 | 3.2 | 17.7 | 0.00 | 0.00 | 0.00 | 48 | 1020.1 |
| 20260503180321 | 17 | 59 | 4.8 | 17.7 | 0.00 | 0.00 | 0.00 | 47 | 1020.1 |
| 20260503175821 | 17 | 360 | 1.6 | 9.7 | 0.00 | 0.00 | 0.00 | 44 | 1020.2 |
| 20260503175312 | 17 | 101 | 3.2 | 8.0 | 0.00 | 0.00 | 0.00 | 47 | 1020.2 |
| 20260503174847 | 17 | 200 | 4.8 | 14.5 | 0.00 | 0.00 | 0.00 | 44 | 1020.3 |
| 20260503174322 | 17 | 176 | 4.8 | 14.5 | 0.00 | 0.03 | 0.00 | 48 | 1020.4 |
| 20260503173818 | 17 | 342 | 4.8 | 11.3 | 0.00 | 0.03 | 0.00 | 46 | 1020.4 |
| 20260503173312 | 17 | 275 | 3.2 | 9.7 | 0.00 | 0.03 | 0.00 | 49 | 1020.5 |
| 20260503172827 | 17 | 158 | 1.6 | 11.3 | 0.00 | 0.03 | 0.00 | 45 | 1020.6 |
| 20260503172321 | 16 | 69 | 3.2 | 14.5 | 0.00 | 0.03 | 0.00 | 45 | 1020.7 |
| 20260503171819 | 16 | 205 | 6.4 | 14.5 | 0.00 | 0.03 | 0.00 | 44 | 1020.9 |
| 20260503171316 | 16 | 150 | 3.2 | 11.3 | 0.00 | 0.03 | 0.00 | 49 | 1020.9 |
| 20260503170826 | 16 | 102 | 3.2 | 9.7 | 0.00 | 0.03 | 0.00 | 49 | 1020.8 |
| 20260503170321 | 15 | 71 | 1.6 | 6.4 | 0.00 | 0.03 | 0.00 | 51 | 1020.9 |
| 20260503150838 | 12 | 306 | 1.6 | 4.8 | 0.00 | 0.03 | 0.00 | 54 | 1021.7 |
| 20260503150313 | 12 | 180 | 3.2 | 12.9 | 0.00 | 0.03 | 0.00 | 57 | 1021.7 |
| 20260503131331 | 7 | 298 | 0.0 | 1.6 | 0.00 | 0.03 | 0.00 | 90 | 1021.9 |
| 20260503130847 | 6 | 160 | 0.0 | 1.6 | 0.00 | 0.03 | 0.00 | 91 | 1021.9 |
| 20260503130326 | 6 | 160 | 0.0 | 3.2 | 0.00 | 0.03 | 0.00 | 95 | 1021.9 |
| 20260503110312 | 0 | 260 | 0.0 | 0.0 | 0.00 | 0.03 | 0.00 | 96 | 1020.7 |
| 20260503090330 | 1 | 260 | 0.0 | 0.0 | 0.00 | 0.03 | 0.00 | 96 | 1019.8 |
| 20260503081330 | 2 | 260 | 0.0 | 0.0 | 0.00 | 0.03 | 0.00 | 96 | 1019.6 |
| 20260503080825 | 2 | 260 | 0.0 | 0.0 | 0.00 | 0.03 | 0.00 | 96 | 1019.5 |
| 20260503080347 | 2 | 260 | 0.0 | 0.0 | 0.00 | 0.03 | 0.00 | 96 | 1019.5 |
| 20260503072818 | 3 | 260 | 0.0 | 0.0 | 0.00 | 0.03 | 0.00 | 95 | 1019.3 |
| 20260503072340 | 3 | 260 | 0.0 | 1.6 | 0.00 | 0.03 | 0.00 | 95 | 1019.1 |
| 20260503071815 | 3 | 260 | 0.0 | 1.6 | 0.00 | 0.03 | 0.00 | 95 | 1019.2 |
| 20260503071311 | 3 | 260 | 0.0 | 0.0 | 0.00 | 0.03 | 0.00 | 95 | 1019.1 |
| 20260503070827 | 3 | 260 | 0.0 | 0.0 | 0.00 | 0.03 | 0.00 | 95 | 1019.1 |
| 20260503070344 | 3 | 260 | 0.0 | 0.0 | 0.00 | 0.03 | 0.00 | 95 | 1019.1 |
| 20260503060322 | 4 | 228 | 0.0 | 1.6 | 0.00 | 0.03 | 0.00 | 94 | 1019.1 |
| 20260503054829 | 5 | 228 | 0.0 | 0.0 | 0.00 | 0.03 | 0.00 | 94 | 1018.9 |
| 20260503054325 | 5 | 228 | 0.0 | 0.0 | 0.00 | 0.03 | 0.03 | 94 | 1018.9 |
| 20260503053822 | 5 | 228 | 0.0 | 0.0 | 0.00 | 0.03 | 0.03 | 94 | 1018.9 |
| 20260503053318 | 5 | 228 | 0.0 | 0.0 | 0.00 | 0.03 | 0.03 | 93 | 1018.9 |
| 20260503052814 | 5 | 228 | 0.0 | 0.0 | 0.00 | 0.03 | 0.03 | 93 | 1018.8 |
| 20260503052314 | 5 | 228 | 0.0 | 0.0 | 0.00 | 0.03 | 0.03 | 93 | 1018.8 |
| 20260503051850 | 5 | 228 | 0.0 | 1.6 | 0.00 | 0.03 | 0.03 | 93 | 1018.8 |
| 20260503051325 | 6 | 228 | 0.0 | 1.6 | 0.00 | 0.03 | 0.03 | 93 | 1018.7 |
| 20260503050820 | 6 | 228 | 0.0 | 1.6 | 0.00 | 0.03 | 0.03 | 93 | 1018.7 |
| 20260503050336 | 6 | 228 | 0.0 | 1.6 | 0.00 | 0.03 | 0.03 | 92 | 1018.6 |
| 20260503045832 | 6 | 230 | 0.0 | 1.6 | 0.00 | 0.03 | 0.03 | 92 | 1018.7 |
| 20260503045326 | 6 | 230 | 0.0 | 1.6 | 0.00 | 0.03 | 0.03 | 92 | 1018.7 |
| 20260503044822 | 6 | 230 | 0.0 | 1.6 | 0.00 | 0.03 | 0.03 | 92 | 1018.6 |
| 20260503044319 | 6 | 230 | 0.0 | 1.6 | 0.00 | 0.03 | 0.03 | 92 | 1018.7 |
| 20260503043819 | 6 | 230 | 0.0 | 1.6 | 0.00 | 0.03 | 0.03 | 92 | 1018.7 |
| 20260503043313 | 7 | 230 | 0.0 | 1.6 | 0.00 | 0.03 | 0.03 | 92 | 1018.7 |
| 20260503042830 | 7 | 225 | 0.0 | 1.6 | 0.00 | 0.03 | 0.03 | 92 | 1018.7 |
| 20260503042345 | 7 | 225 | 0.0 | 0.0 | 0.00 | 0.03 | 0.03 | 93 | 1018.7 |
| 20260503041820 | 7 | 225 | 0.0 | 0.0 | 0.00 | 0.03 | 0.03 | 93 | 1018.7 |
| 20260503041317 | 6 | 225 | 0.0 | 1.6 | 0.00 | 0.03 | 0.03 | 92 | 1018.6 |
| 20260503040812 | 6 | 225 | 0.0 | 1.6 | 0.00 | 0.03 | 0.03 | 93 | 1018.5 |
| 20260503040329 | 6 | 225 | 0.0 | 0.0 | 0.00 | 0.03 | 0.03 | 93 | 1018.4 |
| 20260503035825 | 6 | 225 | 0.0 | 1.6 | 0.00 | 0.03 | 0.03 | 93 | 1018.5 |
| 20260503035324 | 6 | 225 | 0.0 | 1.6 | 0.00 | 0.03 | 0.03 | 93 | 1018.4 |
| 20260503034822 | 6 | 225 | 0.0 | 1.6 | 0.00 | 0.03 | 0.03 | 93 | 1018.4 |
| 20260503034338 | 6 | 225 | 0.0 | 1.6 | 0.00 | 0.03 | 0.03 | 93 | 1018.5 |
| 20260503033813 | 6 | 227 | 0.0 | 1.6 | 0.00 | 0.03 | 0.03 | 94 | 1018.5 |
| 20260503033330 | 6 | 232 | 0.0 | 1.6 | 0.00 | 0.03 | 0.03 | 94 | 1018.6 |
| 20260503032825 | 6 | 232 | 0.0 | 0.0 | 0.00 | 0.03 | 0.03 | 94 | 1018.5 |
| 20260503032322 | 6 | 232 | 0.0 | 0.0 | 0.00 | 0.03 | 0.03 | 93 | 1018.6 |
| 20260503031818 | 6 | 232 | 0.0 | 0.0 | 0.00 | 0.03 | 0.03 | 93 | 1018.4 |
| 20260503031318 | 6 | 232 | 0.0 | 0.0 | 0.00 | 0.03 | 0.03 | 92 | 1018.5 |
| 20260503030815 | 6 | 232 | 0.0 | 0.0 | 0.00 | 0.03 | 0.03 | 92 | 1018.4 |
| 20260503030331 | 6 | 232 | 0.0 | 0.0 | 0.00 | 0.03 | 0.03 | 91 | 1018.3 |
| 20260503025827 | 6 | 232 | 0.0 | 0.0 | 0.00 | 0.03 | 0.03 | 91 | 1018.3 |
| 20260503025323 | 6 | 232 | 0.0 | 0.0 | 0.00 | 0.03 | 0.03 | 90 | 1018.2 |
| 20260503024820 | 7 | 232 | 0.0 | 1.6 | 0.00 | 0.03 | 0.03 | 89 | 1018.2 |
| 20260503024316 | 7 | 232 | 0.0 | 1.6 | 0.00 | 0.03 | 0.03 | 88 | 1018.2 |
| 20260503023816 | 7 | 232 | 0.0 | 0.0 | 0.00 | 0.03 | 0.03 | 88 | 1018.1 |
| 20260503023312 | 7 | 232 | 0.0 | 0.0 | 0.00 | 0.03 | 0.03 | 88 | 1018.1 |
| 20260503022829 | 7 | 232 | 0.0 | 0.0 | 0.00 | 0.03 | 0.03 | 88 | 1018.2 |
| 20260503022325 | 7 | 232 | 0.0 | 0.0 | 0.00 | 0.03 | 0.03 | 87 | 1018.2 |
| 20260503021820 | 7 | 232 | 0.0 | 1.6 | 0.00 | 0.03 | 0.03 | 87 | 1018.3 |
| 20260503021337 | 8 | 232 | 0.0 | 1.6 | 0.00 | 0.03 | 0.03 | 86 | 1018.3 |
| 20260503020852 | 8 | 236 | 0.0 | 1.6 | 0.00 | 0.03 | 0.03 | 85 | 1018.4 |
| 20260503020328 | 8 | 235 | 0.0 | 1.6 | 0.00 | 0.03 | 0.03 | 84 | 1018.3 |
| 20260503015823 | 8 | 198 | 0.0 | 1.6 | 0.00 | 0.03 | 0.03 | 84 | 1018.2 |
| 20260503015324 | 8 | 198 | 0.0 | 1.6 | 0.00 | 0.03 | 0.03 | 83 | 1018.2 |
| 20260503014819 | 8 | 238 | 0.0 | 3.2 | 0.00 | 0.03 | 0.03 | 82 | 1018.4 |
| 20260503014316 | 8 | 248 | 1.6 | 3.2 | 0.00 | 0.03 | 0.03 | 82 | 1018.3 |
| 20260503013813 | 8 | 282 | 1.6 | 4.8 | 0.00 | 0.03 | 0.03 | 81 | 1018.3 |
| 20260503013329 | 9 | 241 | 1.6 | 4.8 | 0.00 | 0.03 | 0.03 | 80 | 1018.1 |
| 20260503012825 | 9 | 315 | 0.0 | 8.0 | 0.00 | 0.03 | 0.03 | 78 | 1017.9 |
| 20260503012342 | 10 | 290 | 3.2 | 8.0 | 0.00 | 0.03 | 0.03 | 77 | 1017.8 |
| 20260503011837 | 10 | 251 | 1.6 | 8.0 | 0.00 | 0.03 | 0.03 | 74 | 1017.7 |
| 20260503011332 | 10 | 246 | 1.6 | 4.8 | 0.00 | 0.03 | 0.03 | 73 | 1017.5 |
| 20260503010847 | 10 | 244 | 1.6 | 4.8 | 0.00 | 0.03 | 0.03 | 72 | 1017.4 |
| 20260503010321 | 10 | 259 | 1.6 | 6.4 | 0.00 | 0.03 | 0.03 | 70 | 1017.2 |
| 20260503005837 | 10 | 282 | 1.6 | 6.4 | 0.00 | 0.03 | 0.03 | 70 | 1017.1 |
| 20260503005312 | 10 | 313 | 0.0 | 8.0 | 0.00 | 0.03 | 0.03 | 70 | 1016.9 |
| 20260503004829 | 10 | 360 | 1.6 | 8.0 | 0.00 | 0.03 | 0.03 | 69 | 1016.9 |
| 20260503004325 | 10 | 355 | 0.0 | 4.8 | 0.00 | 0.03 | 0.03 | 68 | 1016.7 |
| 20260503003821 | 10 | 162 | 1.6 | 12.9 | 0.00 | 0.03 | 0.03 | 68 | 1016.5 |
| 20260503003318 | 11 | 360 | 3.2 | 12.9 | 0.00 | 0.03 | 0.03 | 68 | 1016.5 |
| 20260503002818 | 11 | 187 | 0.0 | 3.2 | 0.00 | 0.03 | 0.03 | 67 | 1016.5 |
| 20260503002334 | 11 | 117 | 0.0 | 0.0 | 0.00 | 0.03 | 0.03 | 66 | 1016.4 |
| 20260503001829 | 11 | 117 | 0.0 | 1.6 | 0.00 | 0.03 | 0.03 | 66 | 1016.3 |
| 20260503001326 | 11 | 117 | 0.0 | 1.6 | 0.00 | 0.03 | 0.03 | 66 | 1016.2 |
| 20260503000821 | 11 | 112 | 0.0 | 0.0 | 0.00 | 0.03 | 0.03 | 66 | 1016.2 |
| 20260503000319 | 11 | 112 | 0.0 | 0.0 | 0.00 | 0.03 | 0.03 | 65 | 1016.1 |
| 20260502235815 | 11 | 112 | 0.0 | 0.0 | 0.00 | 0.03 | 0.03 | 66 | 1016.1 |
| 20260502235316 | 11 | 112 | 0.0 | 0.0 | 0.00 | 0.03 | 0.03 | 65 | 1016.1 |
| 20260502234812 | 11 | 112 | 0.0 | 0.0 | 0.00 | 0.03 | 0.03 | 63 | 1016.0 |
| 20260502234328 | 11 | 112 | 0.0 | 0.0 | 0.00 | 0.03 | 0.03 | 60 | 1015.9 |
| 20260502233824 | 11 | 112 | 0.0 | 1.6 | 0.00 | 0.03 | 0.03 | 59 | 1015.8 |
| 20260502233321 | 12 | 112 | 0.0 | 1.6 | 0.00 | 0.03 | 0.03 | 59 | 1015.9 |
| 20260502232817 | 12 | 119 | 0.0 | 3.2 | 0.00 | 0.03 | 0.03 | 59 | 1015.7 |
| 20260502232332 | 12 | 107 | 1.6 | 3.2 | 0.00 | 0.03 | 0.03 | 57 | 1015.7 |
| 20260502231827 | 12 | 299 | 1.6 | 3.2 | 0.00 | 0.03 | 0.03 | 57 | 1015.8 |
| 20260502231325 | 12 | 38 | 1.6 | 4.8 | 0.00 | 0.03 | 0.03 | 57 | 1015.8 |